Louisburg, NC

1:00 PM EDT on July 24, 2017 (GMT -0400)
Franklin County

Weather History for KLHZ - December, 2013

Change the Weather History Date:

Friday, December 20, 2013

  Actual Average (KRDU) Record (KRDU)
Temperature  
Mean Temperature 56 °F -  
Max Temperature 69 °F 50 °F 78 °F (1931)
Min Temperature 44 °F 33 °F 12 °F (1963)
Degree Days  
Heating Degree Days 8    
Growing Degree Days 6 (Base 50)    
Moisture  
Dew Point 45 °F    
Average Humidity 63    
Maximum Humidity 87    
Minimum Humidity 47    
Precipitation  
Precipitation 0.00 in - - ()
Sea Level Pressure  
Sea Level Pressure 30.20 in    
Wind  
Wind Speed 4 mph (SSW)    
Max Wind Speed 12 mph    
Max Gust Speed 16 mph    
Visibility 10 miles    
Events      
Averages and records for this station are not official NWS values.
T = Trace of Precipitation, MM = Missing Value Source: NWS Daily Summary

Daily Weather History Graph

Daily Weather History Graph

Search for Another Location

Airport or City:

Trip Planner

Search our weather history database for the weather conditions in past years. The results will help you decide how hot, cold, wet, or windy it might be!

Date:

Astronomy

Dec. 20, 2013 Rise Set
Actual Time 7:19 AM EST 5:02 PM EST
Civil Twilight 6:51 AM EST 5:31 PM EST
Nautical Twilight 6:18 AM EST 6:03 PM EST
Astronomical Twilight 5:47 AM EST 6:34 PM EST
Moon 8:16 PM EST (12/20) 9:17 AM EST (12/20)
Length of Visible Light 10h 40m
Length of Day
9h 42m
Waning Gibbous, 90% of the Moon is Illuminated
Dec 20
Waning Gibbous
Dec 25
Last Quarter
Jan 1
New
Jan 7
First Quarter
Jan 15
Full

Hourly Weather History & Observations

Time (EST) Temp. Windchill Dew Point Humidity Pressure Visibility Wind Dir Wind Speed Gust Speed Precip Events Conditions
12:15 AM 50.0 °F - 30.2 °F 47% 30.24 in 10.0 mi SSW 5.8 mph - N/A   Clear
12:35 AM 50.0 °F - 30.2 °F 47% 30.23 in 10.0 mi SSW 4.6 mph - N/A   Clear
12:55 AM 48.2 °F - 32.0 °F 54% 30.23 in 10.0 mi SSW 3.5 mph - N/A   Clear
1:15 AM 48.2 °F - 32.0 °F 54% 30.23 in 10.0 mi SSW 3.5 mph - N/A   Clear
1:35 AM 48.2 °F - 32.0 °F 54% 30.23 in 10.0 mi SSW 3.5 mph - N/A   Clear
1:55 AM 50.0 °F - 33.8 °F 54% 30.24 in 10.0 mi SSW 3.5 mph - N/A   Clear
2:15 AM 50.0 °F - 33.8 °F 54% 30.23 in 10.0 mi SSW 4.6 mph - N/A   Clear
2:35 AM 50.0 °F - 35.6 °F 58% 30.23 in 10.0 mi South 3.5 mph - N/A   Clear
2:55 AM 48.2 °F - 35.6 °F 62% 30.23 in 10.0 mi South 4.6 mph - N/A   Clear
3:15 AM 48.2 °F - 35.6 °F 62% 30.23 in 10.0 mi Calm Calm - N/A   Clear
3:35 AM 50.0 °F - 37.4 °F 62% 30.23 in 10.0 mi Calm Calm - N/A   Clear
3:55 AM 48.2 °F - 37.4 °F 66% 30.23 in 10.0 mi Calm Calm - N/A   Clear
4:15 AM 46.4 °F - 37.4 °F 71% 30.23 in 10.0 mi Calm Calm - N/A   Clear
4:35 AM 44.6 °F - 37.4 °F 76% 30.24 in 10.0 mi Calm Calm - N/A   Scattered Clouds
4:55 AM 44.6 °F - 37.4 °F 76% 30.24 in 10.0 mi Calm Calm - N/A   Mostly Cloudy
5:15 AM 46.4 °F - 39.2 °F 76% 30.24 in 10.0 mi Calm Calm - N/A   Overcast
5:35 AM 46.4 °F - 39.2 °F 76% 30.24 in 10.0 mi Calm Calm - N/A   Mostly Cloudy
5:55 AM 44.6 °F - 39.2 °F 81% 30.25 in 10.0 mi Calm Calm - N/A   Scattered Clouds
6:15 AM 44.6 °F 42.2 °F 39.2 °F 81% 30.25 in 10.0 mi South 4.6 mph - N/A   Clear
6:35 AM 44.6 °F 42.2 °F 39.2 °F 81% 30.25 in 10.0 mi South 4.6 mph - N/A   Scattered Clouds
6:55 AM 44.6 °F 42.2 °F 39.2 °F 81% 30.25 in 10.0 mi South 4.6 mph - N/A   Mostly Cloudy
7:15 AM 44.6 °F 43.1 °F 41.0 °F 87% 30.25 in 10.0 mi South 3.5 mph - N/A   Scattered Clouds
7:35 AM 44.6 °F 43.1 °F 41.0 °F 87% 30.25 in 10.0 mi South 3.5 mph - N/A   Clear
7:55 AM 46.4 °F - 41.0 °F 81% 30.25 in 10.0 mi Calm Calm - N/A   Clear
8:15 AM 46.4 °F 45.2 °F 41.0 °F 81% 30.25 in 10.0 mi South 3.5 mph - N/A   Clear
8:35 AM 50.0 °F - 42.8 °F 76% 30.25 in 10.0 mi Calm Calm - N/A   Clear
8:55 AM 50.0 °F - 42.8 °F 76% 30.25 in 10.0 mi South 3.5 mph - N/A   Clear
9:15 AM 53.6 °F - 44.6 °F 72% 30.25 in 10.0 mi Calm Calm - N/A   Clear
9:35 AM 57.2 °F - 46.4 °F 67% 30.26 in 10.0 mi South 4.6 mph - N/A   Clear
9:55 AM 59.0 °F - 48.2 °F 67% 30.26 in 10.0 mi Calm Calm - N/A   Mostly Cloudy
10:15 AM 60.8 °F - 48.2 °F 63% 30.26 in 10.0 mi South 6.9 mph - N/A   Mostly Cloudy
10:35 AM 60.8 °F - 50.0 °F 68% 30.25 in 10.0 mi SSW 6.9 mph - N/A   Scattered Clouds
10:55 AM 62.6 °F - 50.0 °F 63% 30.25 in 10.0 mi SSW 4.6 mph - N/A   Scattered Clouds
11:15 AM 64.4 °F - 50.0 °F 59% 30.24 in 10.0 mi SSW 6.9 mph - N/A   Scattered Clouds
11:35 AM 64.4 °F - 50.0 °F 59% 30.23 in 10.0 mi SW 4.6 mph - N/A   Scattered Clouds
11:55 AM 64.4 °F - 50.0 °F 59% 30.22 in 10.0 mi South 6.9 mph - N/A   Clear
12:15 PM 66.2 °F - 50.0 °F 56% 30.20 in 10.0 mi SSW 8.1 mph - N/A   Clear
12:35 PM 66.2 °F - 50.0 °F 56% 30.19 in 10.0 mi SSW 5.8 mph - N/A   Clear
12:55 PM 66.2 °F - 51.8 °F 60% 30.18 in 10.0 mi SSW 6.9 mph - N/A   Clear
1:15 PM 66.2 °F - 51.8 °F 60% 30.18 in 10.0 mi SSW 6.9 mph - N/A   Scattered Clouds
1:35 PM 68.0 °F - 51.8 °F 56% 30.17 in 10.0 mi South 6.9 mph - N/A   Scattered Clouds
1:55 PM 68.0 °F - 51.8 °F 56% 30.15 in 10.0 mi South 9.2 mph 16.1 mph N/A   Clear
2:15 PM 69.8 °F - 51.8 °F 53% 30.15 in 10.0 mi SSW 8.1 mph - N/A   Clear
2:35 PM 69.8 °F - 51.8 °F 53% 30.13 in 10.0 mi SSW 6.9 mph - N/A   Clear
2:55 PM 69.8 °F - 51.8 °F 53% 30.13 in 10.0 mi South 9.2 mph - N/A   Clear
3:15 PM 69.8 °F - 51.8 °F 53% 30.13 in 10.0 mi South 11.5 mph - N/A   Clear
3:35 PM 69.8 °F - 51.8 °F 53% 30.14 in 10.0 mi SSW 10.4 mph - N/A   Clear
3:55 PM 68.0 °F - 51.8 °F 56% 30.15 in 10.0 mi South 9.2 mph - N/A   Scattered Clouds
4:15 PM 68.0 °F - 51.8 °F 56% 30.14 in 10.0 mi South 9.2 mph - N/A   Scattered Clouds
4:35 PM 66.2 °F - 51.8 °F 60% 30.15 in 10.0 mi SSW 4.6 mph - N/A   Scattered Clouds
4:55 PM 66.2 °F - 51.8 °F 60% 30.15 in 10.0 mi SSW 3.5 mph - N/A   Scattered Clouds
5:15 PM 66.2 °F - 51.8 °F 60% 30.15 in 10.0 mi Calm Calm - N/A   Mostly Cloudy
5:35 PM 64.4 °F - 51.8 °F 64% 30.15 in 10.0 mi SSW 3.5 mph - N/A   Overcast
5:55 PM 64.4 °F - 51.8 °F 64% 30.16 in 10.0 mi Calm Calm - N/A   Overcast
6:15 PM 64.4 °F - 48.2 °F 56% 30.16 in 10.0 mi SSW 4.6 mph - N/A   Overcast
6:35 PM 64.4 °F - 46.4 °F 52% 30.16 in 10.0 mi SSW 3.5 mph - N/A   Mostly Cloudy
6:55 PM 64.4 °F - 46.4 °F 52% 30.16 in 10.0 mi SSW 3.5 mph - N/A   Scattered Clouds
7:15 PM 64.4 °F - 46.4 °F 52% 30.17 in 10.0 mi Calm Calm - N/A   Clear
7:35 PM 62.6 °F - 46.4 °F 55% 30.17 in 10.0 mi Calm Calm - N/A   Scattered Clouds
7:55 PM 62.6 °F - 46.4 °F 55% 30.17 in 10.0 mi Calm Calm - N/A   Clear
8:15 PM 62.6 °F - 46.4 °F 55% 30.17 in 10.0 mi SSW 3.5 mph - N/A   Clear
8:35 PM 60.8 °F - 46.4 °F 59% 30.17 in 10.0 mi SSW 3.5 mph - N/A   Clear
8:55 PM 60.8 °F - 46.4 °F 59% 30.17 in 10.0 mi Calm Calm - N/A   Clear
9:15 PM 60.8 °F - 46.4 °F 59% 30.17 in 10.0 mi Calm Calm - N/A   Clear
9:35 PM 60.8 °F - 46.4 °F 59% 30.17 in 10.0 mi Calm Calm - N/A   Scattered Clouds
9:55 PM 60.8 °F - 46.4 °F 59% 30.17 in 10.0 mi Calm Calm - N/A   Clear
10:15 PM 60.8 °F - 46.4 °F 59% 30.17 in 10.0 mi Calm Calm - N/A   Clear
10:35 PM 59.0 °F - 46.4 °F 63% 30.18 in 10.0 mi Calm Calm - N/A   Clear
10:55 PM 57.2 °F - 46.4 °F 67% 30.17 in 10.0 mi Calm Calm - N/A   Clear
11:15 PM 55.4 °F - 46.4 °F 72% 30.17 in 10.0 mi Calm Calm - N/A   Clear
11:35 PM 55.4 °F - 46.4 °F 72% 30.17 in 10.0 mi Calm Calm - N/A   Scattered Clouds
11:55 PM 53.6 °F - 46.4 °F 77% 30.17 in 10.0 mi Calm Calm - N/A   Mostly Cloudy